Weather History for Ainsworth, NE

Change the Weather History Date:

Wednesday, November 14, 2012

  Actual Average Record
Temperature  
Mean Temperature 39 °F -  
Max Temperature 56 °F 46 °F 69 °F (2001)
Min Temperature 22 °F 25 °F 2 °F (2014)
Degree Days  
Heating Degree Days 26    
Moisture  
Dew Point 25 °F    
Average Humidity 62    
Maximum Humidity 94    
Minimum Humidity 28    
Precipitation  
Precipitation 0.00 in - - ()
Sea Level Pressure  
Sea Level Pressure 30.15 in    
Wind  
Wind Speed 7 mph (SW)    
Max Wind Speed 18 mph    
Max Gust Speed 24 mph    
Visibility 10 miles    
Events      
Averages and records for this station are not official NWS values.
T = Trace of Precipitation, MM = Missing Value Source: NWS Daily Summary

Daily Weather History Graph

Daily Weather History Graph

Search for Another Location

Airport:

Trip Planner

Search our weather history database for the weather conditions in past years. The results will help you decide how hot, cold, wet, or windy it might be!

Date:

Astronomy

Nov. 14, 2012 Rise Set
Actual Time 7:30 AM CST 5:17 PM CST
Civil Twilight 7:00 AM CST 5:48 PM CST
Nautical Twilight 6:26 AM CST 6:22 PM CST
Astronomical Twilight 5:53 AM CST 6:55 PM CST
Moon 8:23 AM CST (11/14) 6:06 PM CST (11/14)
Length of Visible Light 10h 47m
Length of Day
9h 47m
New Moon, 1% of the Moon is Illuminated
Nov 14
New Moon
Nov 20
First Quarter
Nov 28
Full
Dec 6
Last Quarter
Dec 13
New

Hourly Weather History & Observations

Time (CST) Temp. Windchill Dew Point Humidity Pressure Visibility Wind Dir Wind Speed Gust Speed Precip Events Conditions
12:15 AM 27.5 °F 20.2 °F 24.8 °F 90% 30.23 in 10.0 mi WSW 6.9 mph - N/A   Clear
12:35 AM 25.5 °F 19.9 °F 22.5 °F 88% 30.23 in 10.0 mi SW 4.6 mph - N/A   Clear
12:55 AM 22.3 °F 16.1 °F 19.8 °F 90% 30.23 in 10.0 mi SW 4.6 mph - N/A   Clear
1:15 AM 25.2 °F 20.9 °F 23.7 °F 94% 30.22 in 10.0 mi SW 3.5 mph - N/A   Clear
1:35 AM 25.2 °F 19.5 °F 23.0 °F 91% 30.22 in 10.0 mi WSW 4.6 mph - N/A   Clear
1:55 AM 27.3 °F 22.0 °F 25.3 °F 92% 30.22 in 10.0 mi WSW 4.6 mph - N/A   Clear
2:15 AM 25.7 °F 18.0 °F 22.3 °F 87% 30.23 in 10.0 mi WSW 6.9 mph - N/A   Clear
2:35 AM 27.5 °F 21.1 °F 23.9 °F 86% 30.23 in 10.0 mi WSW 5.8 mph - N/A   Clear
2:55 AM 26.2 °F 20.7 °F 22.3 °F 85% 30.23 in 10.0 mi SW 4.6 mph - N/A   Clear
3:15 AM 23.9 °F 16.8 °F 20.8 °F 88% 30.23 in 10.0 mi SW 5.8 mph - N/A   Clear
3:35 AM 25.7 °F 20.1 °F 23.0 °F 89% 30.22 in 10.0 mi SW 4.6 mph - N/A   Clear
3:55 AM 26.8 °F 20.2 °F 23.9 °F 89% 30.22 in 10.0 mi WSW 5.8 mph - N/A   Clear
4:15 AM 26.4 °F 22.4 °F 23.2 °F 88% 30.22 in 10.0 mi WSW 3.5 mph - N/A   Clear
4:35 AM 25.0 °F 20.7 °F 21.7 °F 87% 30.22 in 10.0 mi SW 3.5 mph - N/A   Clear
4:55 AM 25.0 °F 18.1 °F 22.5 °F 90% 30.22 in 10.0 mi SW 5.8 mph - N/A   Clear
5:15 AM 23.0 °F 17.0 °F 20.8 °F 91% 30.22 in 10.0 mi SW 4.6 mph - N/A   Clear
5:35 AM 24.6 °F 17.7 °F 22.5 °F 91% 30.22 in 10.0 mi SW 5.8 mph - N/A   Clear
5:55 AM 25.2 °F 19.5 °F 22.5 °F 89% 30.21 in 10.0 mi SSW 4.6 mph - N/A   Clear
6:15 AM 22.6 °F 14.3 °F 19.8 °F 89% 30.21 in 10.0 mi SSW 6.9 mph - N/A   Clear
6:35 AM 24.6 °F 17.7 °F 21.6 °F 88% 30.20 in 10.0 mi SSW 5.8 mph - N/A   Clear
6:55 AM 26.1 °F 17.6 °F 22.8 °F 88% 30.21 in 10.0 mi SW 8.1 mph - N/A   Clear
7:15 AM 27.1 °F 19.7 °F 22.8 °F 84% 30.20 in 10.0 mi SW 6.9 mph - N/A   Clear
7:35 AM 27.5 °F 19.3 °F 23.0 °F 83% 30.21 in 10.0 mi SW 8.1 mph - N/A   Clear
7:55 AM 27.7 °F 22.4 °F 23.4 °F 84% 30.21 in 10.0 mi SW 4.6 mph - N/A   Clear
8:15 AM 30.2 °F 23.4 °F 24.8 °F 80% 30.21 in 10.0 mi SW 6.9 mph - N/A   Clear
8:35 AM 32.5 °F 25.5 °F 27.0 °F 80% 30.21 in 10.0 mi WSW 8.1 mph - N/A   Clear
8:55 AM 34.0 °F 27.2 °F 27.5 °F 77% 30.21 in 10.0 mi SW 8.1 mph - N/A   Clear
9:15 AM 37.4 °F 30.8 °F 28.9 °F 71% 30.20 in 10.0 mi SW 9.2 mph - N/A   Clear
9:35 AM 41.0 °F 35.2 °F 28.9 °F 62% 30.20 in 10.0 mi SSW 9.2 mph - N/A   Clear
9:55 AM 43.2 °F 39.0 °F 29.3 °F 58% 30.20 in 10.0 mi SSW 6.9 mph - N/A   Clear
10:15 AM 48.0 °F - 27.5 °F 45% 30.19 in 10.0 mi SSW 11.5 mph - N/A   Clear
10:35 AM 51.6 °F - 26.4 °F 38% 30.18 in 10.0 mi SW 15.0 mph - N/A   Clear
10:55 AM 50.2 °F - 25.7 °F 39% 30.18 in 10.0 mi SW 15.0 mph - N/A   Clear
11:15 AM 51.3 °F - 26.2 °F 38% 30.17 in 10.0 mi SSW 13.8 mph 18.4 mph N/A   Clear
11:35 AM 51.3 °F - 26.1 °F 38% 30.17 in 10.0 mi SW 13.8 mph - N/A   Clear
11:55 AM 53.1 °F - 25.5 °F 34% 30.15 in 10.0 mi SW 15.0 mph 18.4 mph N/A   Clear
12:15 PM 55.4 °F - 25.0 °F 31% 30.14 in 10.0 mi SW 17.3 mph - N/A   Clear
12:35 PM 56.8 °F - 24.3 °F 28% 30.13 in 10.0 mi SW 15.0 mph 21.9 mph N/A   Clear
12:55 PM 56.3 °F - 24.3 °F 29% 30.12 in 10.0 mi SW 18.4 mph 23.0 mph N/A   Clear
1:15 PM 56.3 °F - 24.3 °F 29% 30.11 in 10.0 mi SW 18.4 mph 24.2 mph N/A   Clear
1:35 PM 56.3 °F - 23.5 °F 28% 30.10 in 10.0 mi SW 17.3 mph 21.9 mph N/A   Clear
1:55 PM 56.1 °F - 23.7 °F 29% 30.10 in 10.0 mi SW 13.8 mph - N/A   Clear
2:15 PM 56.8 °F - 23.7 °F 28% 30.09 in 10.0 mi WSW 15.0 mph 24.2 mph N/A   Clear
2:35 PM 56.8 °F - 23.9 °F 28% 30.09 in 10.0 mi SW 15.0 mph - N/A   Clear
2:55 PM 56.7 °F - 23.9 °F 28% 30.08 in 10.0 mi SW 18.4 mph - N/A   Clear
3:15 PM 55.9 °F - 24.3 °F 29% 30.08 in 10.0 mi SW 15.0 mph - N/A   Clear
3:35 PM 55.8 °F - 24.4 °F 30% 30.08 in 10.0 mi SW 11.5 mph - N/A   Clear
3:55 PM 55.4 °F - 24.4 °F 30% 30.07 in 10.0 mi WSW 6.9 mph - N/A   Clear
4:15 PM 55.0 °F - 24.8 °F 31% 30.07 in 10.0 mi WSW 3.5 mph - N/A   Clear
4:35 PM 53.2 °F - 25.5 °F 34% 30.07 in 10.0 mi West 3.5 mph - N/A   Clear
4:55 PM 52.2 °F - 25.9 °F 36% 30.07 in 10.0 mi NW 4.6 mph - N/A   Clear
5:15 PM 48.7 °F - 26.4 °F 42% 30.07 in 10.0 mi NNW 3.5 mph - N/A   Clear
5:35 PM 45.9 °F 44.6 °F 26.2 °F 46% 30.07 in 10.0 mi NNW 3.5 mph - N/A   Clear
5:55 PM 46.0 °F 44.8 °F 27.0 °F 47% 30.08 in 10.0 mi NNW 3.5 mph - N/A   Clear
6:15 PM 45.3 °F 43.0 °F 27.1 °F 49% 30.08 in 10.0 mi NNW 4.6 mph - N/A   Clear
6:35 PM 41.0 °F - 25.9 °F 55% 30.08 in 10.0 mi Calm Calm - N/A   Clear
6:55 PM 39.6 °F - 25.3 °F 57% 30.08 in 7.0 mi Calm Calm - N/A   Clear
7:15 PM 37.2 °F 31.2 °F 26.1 °F 64% 30.08 in 10.0 mi South 8.1 mph - N/A   Clear
7:35 PM 37.9 °F 33.5 °F 25.9 °F 62% 30.09 in 10.0 mi South 5.8 mph - N/A   Clear
7:55 PM 36.9 °F 33.1 °F 25.7 °F 64% 30.10 in 10.0 mi South 4.6 mph - N/A   Clear
8:35 PM 39.2 °F 35.9 °F 26.6 °F 61% 30.10 in 10.0 mi South 4.6 mph - N/A   Clear
8:55 PM 39.0 °F 36.8 °F 26.6 °F 61% 30.10 in 10.0 mi South 3.5 mph - N/A   Clear
9:15 PM 39.0 °F 36.8 °F 26.2 °F 60% 30.10 in 10.0 mi South 3.5 mph - N/A   Clear
9:35 PM 38.3 °F - 26.8 °F 63% 30.11 in 10.0 mi Calm Calm - N/A   Clear
9:55 PM 38.3 °F - 26.4 °F 62% 30.11 in 10.0 mi Calm Calm - N/A   Clear
10:15 PM 38.7 °F - 26.4 °F 61% 30.12 in 10.0 mi Calm Calm - N/A   Clear
10:35 PM 38.3 °F - 26.8 °F 63% 30.12 in 10.0 mi Calm Calm - N/A   Scattered Clouds
10:55 PM 37.6 °F - 26.6 °F 65% 30.12 in 10.0 mi Calm Calm - N/A   Mostly Cloudy
11:15 PM 39.2 °F 37.0 °F 27.1 °F 62% 30.12 in 10.0 mi WNW 3.5 mph - N/A   Overcast
11:35 PM 38.5 °F - 26.8 °F 63% 30.13 in 10.0 mi Calm Calm - N/A   Overcast
11:55 PM 38.1 °F - 27.1 °F 65% 30.14 in 10.0 mi Calm Calm - N/A   Overcast